{"data":{"norad_id":63326,"epoch":"2026-05-24T19:43:38.211456Z","epoch_age_seconds":87604,"freshness":"FRESH","line1":"1 63326U 25057V   26144.82197004  .00016750  00000+0  61645-3 0  9990","line2":"2 63326  42.9987 320.6403 0002138 277.0234  83.0375 15.27598407 67421","mean_motion":15.27598407,"eccentricity":0.0002138,"inclination_deg":42.9987,"raan_deg":320.6403,"arg_perigee_deg":277.0234,"mean_anomaly_deg":83.0375,"bstar":0.00061645,"rev_number":6742,"period_min":94.265612833936,"perigee_km":481.52706960982,"apogee_km":484.46088921662,"semimajor_km":6861.1309794132,"source":"CELESTRAK","updated_at":"2026-05-25T13:38:19.960007Z"}}